• In Russia
  • List of Countries
  • For 7 days
  • Water Temperature
  • Satellite Maps
  • Weather Map
  • Weather Widgets
  • user-avatar
    Login

    Hourly Weather Ischgl

    Today, 25 July, Tuesday

    Time Temperature Precipitation Wind Pressure Humidity
    00:00 +1°C° 0.1 mm 2 mps 571 mmHg 93%
    01:00 +1°C° 0.1 mm 2 mps 571 mmHg 93%
    02:00 +1°C° 0.5 mm 2 mps 570 mmHg 92%
    03:00 +1°C° 0.5 mm 2 mps 570 mmHg 91%
    04:00 +1°C° 0.5 mm 2 mps 570 mmHg 90%
    05:00 +2°C° 0.5 mm 2 mps 570 mmHg 89%
    06:00 +2°C° 0.5 mm 2 mps 571 mmHg 89%
    07:00 +2°C° 0.5 mm 2 mps 571 mmHg 88%
    08:00 +3°C° 0.4 mm 2 mps 571 mmHg 85%
    09:00 +4°C° 0.4 mm 2 mps 571 mmHg 82%
    10:00 +4°C° 0.4 mm 2 mps 572 mmHg 79%
    11:00 +5°C° 0.4 mm 2 mps 572 mmHg 75%
    12:00 +6°C° 0.4 mm 2 mps 572 mmHg 72%
    13:00 +7°C° 0.4 mm 3 mps 572 mmHg 68%
    14:00 +7°C° 0.5 mm 3 mps 572 mmHg 68%
    15:00 +7°C° 0.5 mm 3 mps 572 mmHg 69%
    16:00 +7°C° 0.5 mm 3 mps 572 mmHg 69%
    17:00 +5°C° 0.3 mm 3 mps 572 mmHg 73%
    18:00 +5°C° 0.3 mm 2 mps 571 mmHg 77%
    19:00 +4°C° 0.3 mm 2 mps 571 mmHg 81%
    20:00 +3°C° 0.1 mm 2 mps 571 mmHg 85%
    21:00 +2°C° 0.1 mm 2 mps 570 mmHg 88%
    22:00 +2°C° 0.1 mm 2 mps 570 mmHg 91%
    23:00 +2°C° 0.2 mm 2 mps 570 mmHg 91%

    Tomorrow, 26 July, Wednesday

    Time Temperature Precipitation Wind Pressure Humidity
    00:00 +2°C° 0.2 mm 2 mps 570 mmHg 91%
    01:00 +1°C° 0.2 mm 2 mps 570 mmHg 91%
    02:00 +1°C° 0.3 mm 2 mps 570 mmHg 91%
    03:00 +1°C° 0.3 mm 2 mps 570 mmHg 91%
    04:00 +1°C° 0.3 mm 2 mps 569 mmHg 92%
    05:00 +1°C° 0.5 mm 2 mps 570 mmHg 90%
    06:00 +2°C° 0.5 mm 2 mps 570 mmHg 89%
    07:00 +2°C° 0.5 mm 2 mps 570 mmHg 87%
    08:00 +3°C° 0.8 mm 2 mps 571 mmHg 86%
    09:00 +3°C° 0.8 mm 2 mps 571 mmHg 84%
    10:00 +3°C° 0.8 mm 3 mps 572 mmHg 83%
    11:00 +3°C° 0.4 mm 3 mps 572 mmHg 80%
    12:00 +4°C° 0.4 mm 3 mps 572 mmHg 78%
    13:00 +5°C° 0.4 mm 3 mps 573 mmHg 75%
    14:00 +6°C° 0.1 mm 2 mps 573 mmHg 74%
    15:00 +6°C° 0.1 mm 2 mps 573 mmHg 73%
    16:00 +6°C° 0.1 mm 2 mps 573 mmHg 72%
    17:00 +6°C° 0.1 mm 2 mps 573 mmHg 74%
    18:00 +5°C° 0.1 mm 2 mps 573 mmHg 77%
    19:00 +5°C° 0.1 mm 2 mps 573 mmHg 80%
    20:00 +4°C° 0 mm 2 mps 572 mmHg 84%
    21:00 +2°C° 0 mm 2 mps 572 mmHg 89%
    22:00 +1°C° 0 mm 2 mps 572 mmHg 93%
    23:00 +1°C° 0 mm 2 mps 572 mmHg 93%

    Day after tomorrow, 27 July, Thursday

    Time Temperature Precipitation Wind Pressure Humidity
    00:00 +1°C° 0 mm 2 mps 572 mmHg 93%
    01:00 -1°C° 0 mm 2 mps 572 mmHg 93%
    02:00 -1°C° 0 mm 2 mps 572 mmHg 92%
    03:00 -1°C° 0 mm 2 mps 572 mmHg 90%
    04:00 +1°C° 0 mm 1 mps 572 mmHg 88%
    05:00 +3°C° 0 mm 1 mps 572 mmHg 81%
    06:00 +4°C° 0 mm 1 mps 573 mmHg 74%
    07:00 +6°C° 0 mm 1 mps 574 mmHg 67%
    08:00 +8°C° 0 mm 1 mps 575 mmHg 58%
    09:00 +10°C° 0 mm 1 mps 576 mmHg 50%
    10:00 +12°C° 0 mm 1 mps 577 mmHg 42%
    11:00 +13°C° 0 mm 1 mps 577 mmHg 44%
    12:00 +13°C° 0 mm 1 mps 577 mmHg 45%
    13:00 +14°C° 0 mm 2 mps 577 mmHg 47%
    14:00 +14°C° 0 mm 2 mps 577 mmHg 47%
    15:00 +14°C° 0 mm 2 mps 577 mmHg 48%
    16:00 +14°C° 0 mm 2 mps 577 mmHg 49%
    17:00 +13°C° 0.1 mm 2 mps 577 mmHg 59%
    18:00 +12°C° 0.1 mm 1 mps 576 mmHg 70%
    19:00 +10°C° 0.1 mm 1 mps 575 mmHg 80%
    20:00 +9°C° 0.2 mm 1 mps 575 mmHg 83%
    21:00 +8°C° 0.2 mm 1 mps 575 mmHg 86%
    22:00 +8°C° 0.2 mm 1 mps 575 mmHg 89%
    23:00 +7°C° 0.4 mm 1 mps 575 mmHg 89%

    28 July, Friday

    Time Temperature Precipitation Wind Pressure Humidity
    00:00 +7°C° 0.4 mm 1 mps 575 mmHg 90%
    01:00 +7°C° 0.4 mm 1 mps 574 mmHg 90%
    02:00 +7°C° 0.7 mm 1 mps 575 mmHg 91%
    03:00 +7°C° 0.7 mm 1 mps 575 mmHg 91%
    04:00 +7°C° 0.7 mm 1 mps 575 mmHg 91%
    05:00 +8°C° 0.2 mm 1 mps 575 mmHg 90%
    06:00 +8°C° 0.2 mm 1 mps 576 mmHg 88%
    07:00 +9°C° 0.2 mm 1 mps 576 mmHg 87%
    08:00 +10°C° 0.2 mm 1 mps 577 mmHg 85%
    09:00 +10°C° 0.2 mm 1 mps 577 mmHg 83%
    10:00 +11°C° 0.2 mm 1 mps 578 mmHg 81%
    11:00 +12°C° 0.2 mm 2 mps 578 mmHg 79%
    12:00 +12°C° 0.2 mm 2 mps 578 mmHg 77%
    13:00 +13°C° 0.2 mm 2 mps 578 mmHg 75%
    14:00 +13°C° 0.1 mm 2 mps 579 mmHg 73%
    15:00 +13°C° 0.1 mm 2 mps 579 mmHg 72%
    16:00 +14°C° 0.1 mm 2 mps 579 mmHg 70%
    17:00 +13°C° 0.1 mm 2 mps 579 mmHg 75%
    18:00 +12°C° 0.1 mm 2 mps 579 mmHg 80%
    19:00 +10°C° 0.1 mm 2 mps 579 mmHg 84%
    20:00 +10°C° 0 mm 1 mps 579 mmHg 88%
    21:00 +9°C° 0 mm 1 mps 578 mmHg 92%
    22:00 +7°C° 0 mm 1 mps 578 mmHg 96%
    23:00 +7°C° 0 mm 1 mps 578 mmHg 96%

    29 July, Saturday

    Time Temperature Precipitation Wind Pressure Humidity
    00:00 +7°C° 0 mm 1 mps 578 mmHg 95%
    01:00 +7°C° 0 mm 1 mps 578 mmHg 95%
    02:00 +6°C° 0 mm 1 mps 578 mmHg 95%
    03:00 +6°C° 0 mm 1 mps 577 mmHg 94%
    04:00 +6°C° 0 mm 1 mps 577 mmHg 94%
    05:00 +7°C° 0 mm 1 mps 578 mmHg 90%
    06:00 +9°C° 0 mm 1 mps 579 mmHg 87%
    07:00 +11°C° 0 mm 1 mps 580 mmHg 83%
    08:00 +12°C° 0 mm 2 mps 581 mmHg 76%
    09:00 +14°C° 0 mm 2 mps 581 mmHg 68%
    10:00 +16°C° 0 mm 2 mps 582 mmHg 61%
    11:00 +16°C° 0.3 mm 2 mps 582 mmHg 61%
    12:00 +17°C° 0.3 mm 2 mps 582 mmHg 61%
    13:00 +17°C° 0.3 mm 2 mps 582 mmHg 61%
    14:00 +16°C° 1.4 mm 2 mps 581 mmHg 66%
    15:00 +16°C° 1.4 mm 2 mps 581 mmHg 71%
    16:00 +15°C° 1.4 mm 2 mps 581 mmHg 76%
    17:00 +14°C° 2.1 mm 2 mps 580 mmHg 81%
    18:00 +13°C° 2.1 mm 1 mps 580 mmHg 85%
    19:00 +12°C° 2.1 mm 1 mps 580 mmHg 90%
    20:00 +11°C° 1.7 mm 1 mps 579 mmHg 91%
    21:00 +10°C° 1.7 mm 1 mps 579 mmHg 92%
    22:00 +10°C° 1.7 mm 1 mps 579 mmHg 93%
    23:00 +9°C° 0.7 mm 1 mps 579 mmHg 93%

    30 July, Sunday

    Time Temperature Precipitation Wind Pressure Humidity
    00:00 +9°C° 0.7 mm 1 mps 579 mmHg 93%
    01:00 +9°C° 0.7 mm 1 mps 578 mmHg 93%
    02:00 +9°C° 0.9 mm 1 mps 578 mmHg 93%
    03:00 +9°C° 0.9 mm 1 mps 578 mmHg 94%
    04:00 +8°C° 0.9 mm 0 mps 578 mmHg 94%
    05:00 +8°C° 0.6 mm 0 mps 579 mmHg 93%
    06:00 +9°C° 0.6 mm 0 mps 579 mmHg 91%
    07:00 +10°C° 0.6 mm 1 mps 579 mmHg 90%
    08:00 +11°C° 0.4 mm 1 mps 580 mmHg 84%
    09:00 +13°C° 0.4 mm 1 mps 581 mmHg 77%
    10:00 +14°C° 0.4 mm 1 mps 581 mmHg 71%
    11:00 +15°C° 0.5 mm 1 mps 582 mmHg 67%
    12:00 +16°C° 0.5 mm 1 mps 582 mmHg 62%
    13:00 +18°C° 0.5 mm 1 mps 582 mmHg 57%
    14:00 +18°C° 0.9 mm 1 mps 582 mmHg 60%
    15:00 +16°C° 0.9 mm 2 mps 581 mmHg 62%
    16:00 +16°C° 0.9 mm 2 mps 581 mmHg 65%
    17:00 +15°C° 0.8 mm 1 mps 581 mmHg 71%
    18:00 +14°C° 0.8 mm 1 mps 580 mmHg 78%
    19:00 +13°C° 0.8 mm 1 mps 580 mmHg 84%
    20:00 +12°C° 0.4 mm 1 mps 579 mmHg 86%
    21:00 +11°C° 0.4 mm 1 mps 579 mmHg 89%
    22:00 +10°C° 0.4 mm 1 mps 579 mmHg 92%
    23:00 +9°C° 0.2 mm 1 mps 578 mmHg 91%
    Show more